This is the latest recevied weather packets stored in our database for station/object K4CRS-13. If no packets are shown the sender has not sent any weather packets the latest 10 day(s).
| Time | Temp. | Humidity | Pressure | Rain* | Wind** | Luminosity | Snow |
|---|---|---|---|---|---|---|---|
| 1787926572 | 26.67° C | 74% | 1053.4 hPa | 0 mm | - | 402 W/m² | - |
| 1787926271 | 26.11° C | 75% | 1053.6 hPa | 0 mm | - | 391 W/m² | - |
| 1787925966 | 26.11° C | 78% | 1053.5 hPa | 0 mm | - | 364 W/m² | - |
| 1787925661 | 26.11° C | 79% | 1053.7 hPa | 0 mm | - | 359 W/m² | - |
| 1787925356 | 25.56° C | 80% | 1053.9 hPa | 0 mm | - | 341 W/m² | - |
| 1787925054 | 25.56° C | 81% | 1053.7 hPa | 0 mm | - | 322 W/m² | - |
| 1787924743 | 25° C | 83% | 1053.7 hPa | 0 mm | - | 288 W/m² | - |
| 1787924437 | 25° C | 84% | 1053.6 hPa | 0 mm | - | 328 W/m² | - |
| 1787924132 | 24.44° C | 87% | 1053.5 hPa | 0 mm | - | 315 W/m² | - |
| 1787923827 | 23.89° C | 89% | 1053.7 hPa | 0 mm | - | 77 W/m² | - |
| 1787923526 | 23.89° C | 90% | 1053.6 hPa | 0 mm | - | 227 W/m² | - |
| 1787923222 | 23.33° C | 93% | 1053.3 hPa | 0 mm | - | 194 W/m² | - |
| 1787922919 | 22.78° C | 95% | 1053.7 hPa | 0 mm | - | 162 W/m² | - |
| 1787922617 | 22.22° C | 97% | 1053.5 hPa | 0 mm | - | 141 W/m² | - |
| 1787922317 | 22.22° C | 99% | 1053.5 hPa | 0 mm | - | 134 W/m² | - |
| 1787922014 | 21.67° C | 99% | 1053.3 hPa | 0 mm | - | 115 W/m² | - |
| 1787921709 | 21.67° C | 99% | 1053.3 hPa | 0 mm | - | 101 W/m² | - |
| 1787921409 | 21.67° C | 99% | 1053.1 hPa | 0 mm | - | 51 W/m² | - |
| 1787921104 | 21.67° C | 99% | 1053.1 hPa | 0 mm | - | 50 W/m² | - |
| 1787920803 | 21.11° C | 99% | 1053.1 hPa | 0 mm | - | 73 W/m² | - |
| 1787920493 | 21.11° C | 99% | 1053.1 hPa | 0 mm | - | 69 W/m² | - |
| 1787920190 | 21.11° C | 99% | 1052.9 hPa | 0 mm | - | 62 W/m² | - |
| 1787919885 | 20.56° C | 99% | 1053 hPa | 0 mm | - | 56 W/m² | - |
| 1787919583 | 20.56° C | 99% | 1053.1 hPa | 0 mm | - | 45 W/m² | - |
| 1787919279 | 20.56° C | 99% | 1053 hPa | 0 mm | - | 45 W/m² | - |
* Rain latest hour (hover to see other rain measurements)
** Current wind speed in m/s (hover to see current wind gust speed)